sat.trackr.live / text

‹ back to catalog

STARLINK-32906

NORAD 63080 · 2025-037D

PAYLOAD ACTIVE UNKNOWN

§ Identity

Operator
Country
US
Launch date
2025-02-23
Launch site
AFWTR
Launch vehicle
Mass (kg)
RCS (m²)

Purposes: comms

External: N2YO · Heavens-Above · Gunter

§ Orbital elements

Epoch: 2026-09-20T14:09:02.920896Z

Period
94.14 min
Inclination
69.9955°
Eccentricity
0.0003747
Mean motion
15.29591700 rev/d
Perigee alt
474.5 km
Apogee alt
479.6 km
Semi-major
6,855.2 km
B*
4.6082e-4
RAAN
220.7489°
Arg perigee
269.8082°
Mean anomaly
90.2663°
Rev number
8,785

§ Raw data

STARLINK-329061 63080U 25037D   26263.58961714  .00013148  00000+0  46082-3 0  99932 63080  69.9955 220.7489 0003747 269.8082  90.2663 15.29591700 87853

JSON: /api/v1/satellites/63080 · /tle

For live sub-satellite position, see the globe view (requires WebGL).

§ Visibility from observer

Set your observer location to see the next 7 days of passes ≥ 10°. The values pass through the URL so the page stays shareable.

No JS? Fill the form by hand. The geolocation button needs JavaScript.